Weather History for Panama City Tyndall AFB, FL

Change the Weather History Date:

Wednesday, December 5, 2012

  Actual Average Record
Temperature  
Mean Temperature 64 °F -  
Max Temperature 77 °F 65 °F 78 °F (2001)
Min Temperature 51 °F 48 °F 32 °F (2006)
Degree Days  
Heating Degree Days 1    
Growing Degree Days 14 (Base 50)    
Moisture  
Dew Point 57 °F    
Average Humidity 94    
Maximum Humidity 100    
Minimum Humidity 65    
Precipitation  
Precipitation 0.00 in - - ()
Sea Level Pressure  
Sea Level Pressure 30.14 in    
Wind  
Wind Speed 2 mph (SE)    
Max Wind Speed 10 mph    
Max Gust Speed -    
Visibility 7 miles    
Events      
Averages and records for this station are not official NWS values.
T = Trace of Precipitation, MM = Missing Value Source: NWS Daily Summary

Daily Weather History Graph

Daily Weather History Graph

Search for Another Location

Airport:

Trip Planner

Search our weather history database for the weather conditions in past years. The results will help you decide how hot, cold, wet, or windy it might be!

Date:

Astronomy

Dec. 05, 2012 Rise Set
Actual Time 6:24 AM CST 4:42 PM CST
Civil Twilight 5:58 AM CST 5:08 PM CST
Nautical Twilight 5:28 AM CST 5:37 PM CST
Astronomical Twilight 4:59 AM CST 6:07 PM CST
Moon 11:09 PM CST (12/5) 11:06 AM CST (12/5)
Length of Visible Light 11h 10m
Length of Day
10h 17m
Waning Gibbous, 59% of the Moon is Illuminated
Dec 5
Waning Gibbous
Dec 6
Last Quarter
Dec 13
New
Dec 19
First Quarter
Dec 28
Full

Hourly Weather History & Observations

Time (CST) Temp. Dew Point Humidity Pressure Visibility Wind Dir Wind Speed Gust Speed Precip Events Conditions
12:10 AM 53.6 °F 53.6 °F 100% 30.19 in 4.0 mi Calm Calm - N/A   Clear
12:14 AM 51.8 °F 51.8 °F 100% 30.19 in 2.5 mi Calm Calm - N/A   Clear
12:16 AM 51.8 °F 51.8 °F 100% 30.19 in 2.5 mi Calm Calm - N/A   Clear
12:19 AM 51.8 °F 51.8 °F 100% 30.19 in 3.0 mi East 3.5 mph - N/A   Clear
12:22 AM 51.8 °F 51.8 °F 100% 30.19 in 5.0 mi East 3.5 mph - N/A   Clear
12:55 AM 54.9 °F 54.9 °F 100% 30.19 in 10.0 mi Calm Calm - N/A   Clear
1:55 AM 52.7 °F 52.7 °F 100% 30.18 in 4.0 mi Calm Calm - N/A   Clear
2:02 AM 51.8 °F 51.8 °F 100% 30.18 in 5.0 mi ESE 4.6 mph - N/A   Clear
2:55 AM 57.0 °F 57.0 °F 100% 30.17 in 10.0 mi East 5.8 mph - N/A   Clear
3:55 AM 53.8 °F 53.4 °F 99% 30.17 in 10.0 mi Calm Calm - N/A   Clear
4:16 AM 53.6 °F 53.6 °F 100% 30.18 in 2.5 mi Calm Calm - N/A   Clear
4:17 AM 53.6 °F 53.6 °F 100% 30.18 in 2.5 mi Calm Calm - N/A   Clear
4:21 AM 53.6 °F 53.6 °F 100% 30.18 in 2.5 mi Calm Calm - N/A   Clear
4:27 AM 53.6 °F 53.6 °F 100% 30.18 in 6.0 mi Calm Calm - N/A   Clear
4:32 AM 53.6 °F 51.8 °F 94% 30.18 in 4.0 mi ENE 3.5 mph - N/A   Clear
4:36 AM 51.8 °F 51.8 °F 100% 30.18 in 5.0 mi Calm Calm - N/A   Clear
4:55 AM 51.6 °F 51.6 °F 100% 30.18 in 10.0 mi Calm Calm - N/A   Clear
5:55 AM 56.5 °F 56.5 °F 100% 30.19 in 10.0 mi East 6.9 mph - N/A   Partly Cloudy
6:55 AM 57.6 °F 57.2 °F 99% 30.20 in 10.0 mi East 3.5 mph - N/A   Mostly Cloudy
8:55 AM 65.5 °F 62.6 °F 90% 30.21 in 10.0 mi East 3.5 mph - N/A   Mostly Cloudy
9:55 AM 71.1 °F 65.5 °F 82% 30.20 in 10.0 mi Variable 3.5 mph - N/A   Mostly Cloudy
10:55 AM 74.1 °F 65.1 °F 73% 30.18 in 10.0 mi South 6.9 mph - N/A   Mostly Cloudy
11:55 AM 73.6 °F 64.2 °F 72% 30.14 in 10.0 mi South 6.9 mph - N/A   Mostly Cloudy
12:55 PM 75.7 °F 64.9 °F 69% 30.10 in 10.0 mi SE 5.8 mph - N/A   Mostly Cloudy
1:34 PM 77.0 °F 64.4 °F 65% 30.09 in 10.0 mi SSW 10.4 mph - N/A   Mostly Cloudy
1:55 PM 75.2 °F 62.6 °F 65% 30.09 in 10.0 mi SSW 8.1 mph - N/A   Scattered Clouds
2:55 PM 72.3 °F 63.0 °F 72% 30.08 in 10.0 mi SSW 5.8 mph - N/A   Scattered Clouds
3:55 PM 69.8 °F 64.4 °F 83% 30.08 in 10.0 mi South 3.5 mph - N/A   Partly Cloudy
4:55 PM 68.0 °F 64.4 °F 88% 30.08 in 10.0 mi Calm Calm - N/A   Clear
5:55 PM 61.3 °F 61.0 °F 99% 30.09 in 10.0 mi Calm Calm - N/A   Clear
6:55 PM 60.4 °F 60.1 °F 99% 30.10 in 10.0 mi Calm Calm - N/A   Clear
7:55 PM 57.0 °F 57.0 °F 100% 30.09 in 10.0 mi Calm Calm - N/A   Clear
8:55 PM 56.3 °F 56.3 °F 100% 30.10 in 10.0 mi Calm Calm - N/A   Clear
9:55 PM 57.0 °F 56.8 °F 99% 30.09 in 8.0 mi Calm Calm - N/A   Partly Cloudy
10:44 PM 55.4 °F 55.4 °F 100% 30.09 in 4.0 mi Calm Calm - N/A   Clear
10:50 PM 55.4 °F 55.4 °F 100% 30.09 in 1.5 mi Calm Calm - N/A   Clear
10:51 PM 55.4 °F 55.4 °F 100% 30.09 in 1.2 mi Calm Calm - N/A   Clear
10:55 PM 54.7 °F 54.7 °F 100% 30.08 in 0.8 mi Calm Calm - N/A   Clear
10:59 PM 53.6 °F 53.6 °F 100% 30.08 in 1.0 mi Calm Calm - N/A   Clear
11:00 PM 53.6 °F 53.6 °F 100% 30.08 in 1.0 mi Calm Calm - N/A   Clear
11:05 PM 53.6 °F 53.6 °F 100% 30.08 in 3.0 mi Calm Calm - N/A   Clear
11:06 PM 55.4 °F 53.6 °F 94% 30.08 in 3.0 mi Calm Calm - N/A   Clear
11:55 PM 54.7 °F 54.7 °F 100% 30.07 in 10.0 mi Calm Calm - N/A   Clear